EW2973 Weather Reports


Display with metric or nautical units.
time (UTC)temp
F
wind
direction
speed
MPH
gust
MPH
rain 1hr
in
rain 24hr
in
rain mn
in
humidity
%
barometer
mb
20260508204518 65 242 3.0 12.0 0.00 0.00 0.00 45 1010.5
20260508203017 65 252 6.0 18.0 0.00 0.00 0.00 43 1010.7
20260508201510 65 217 5.0 17.0 0.00 0.00 0.00 44 1010.9
20260508200008 65 232 7.0 18.0 0.00 0.00 0.00 44 1011.1
20260508194527 64 196 9.0 19.0 0.00 0.00 0.00 43 1011.2
20260508193026 64 246 6.0 13.0 0.00 0.00 0.00 45 1011.4
20260508191523 65 300 3.0 12.0 0.00 0.00 0.00 45 1011.4
20260508190032 67 244 4.0 17.0 0.00 0.00 0.00 47 1011.5
20260508184516 67 264 5.0 13.0 0.00 0.00 0.00 44 1011.6
20260508183026 65 216 8.0 14.0 0.00 0.00 0.00 48 1012.3
20260508181529 65 225 2.0 14.0 0.00 0.00 0.00 46 1012.5
20260508180028 65 206 7.0 16.0 0.00 0.00 0.00 47 1012.8
20260508174535 63 225 5.0 11.0 0.00 0.00 0.00 51 1013.3
20260508173021 61 140 3.0 9.0 0.00 0.00 0.00 52 1013.7
20260508171521 61 257 2.0 7.0 0.00 0.00 0.00 53 1013.8
20260508170032 61 253 3.0 9.0 0.00 0.00 0.00 50 1014.0
20260508164526 62 254 2.0 6.0 0.00 0.00 0.00 54 1014.1
20260508163040 60 208 3.0 9.0 0.00 0.00 0.00 50 1014.3
20260508161527 61 256 3.0 9.0 0.00 0.00 0.00 53 1014.5
20260508160027 58 167 3.0 7.0 0.00 0.00 0.00 53 1014.5
20260508154522 57 293 3.0 9.0 0.00 0.00 0.00 54 1014.6
20260508153027 56 234 4.0 12.0 0.00 0.00 0.00 55 1014.6
20260508151533 55 200 1.0 9.0 0.00 0.00 0.00 58 1015.0
20260508150029 54 284 3.0 9.0 0.00 0.00 0.00 58 1015.1
20260508144535 54 168 0.0 4.0 0.00 0.00 0.00 64 1015.2
20260508143028 54 216 1.0 5.0 0.00 0.00 0.00 61 1015.0
20260508141526 54 246 2.0 5.0 0.00 0.00 0.00 62 1015.1
20260508140027 53 205 3.0 9.0 0.00 0.00 0.00 60 1015.1
20260508134524 53 244 3.0 8.0 0.00 0.00 0.00 62 1015.1
20260508133008 52 248 6.0 11.0 0.00 0.00 0.00 63 1015.1
20260508131506 51 242 3.0 7.0 0.00 0.00 0.00 66 1015.0
20260508130008 50 176 2.0 6.0 0.00 0.00 0.00 65 1015.1
20260508124508 49 232 2.0 6.0 0.00 0.00 0.00 67 1015.0
20260508123010 48 186 2.0 7.0 0.00 0.00 0.00 68 1014.9
20260508121507 48 197 1.0 6.0 0.00 0.00 0.00 69 1015.0
20260508120006 46 185 1.0 6.0 0.00 0.00 0.00 72 1015.0
20260508114509 45 195 2.0 7.0 0.00 0.00 0.00 73 1014.9
20260508113011 44 242 1.0 3.0 0.00 0.00 0.00 75 1014.7
20260508111508 43 193 0.0 3.0 0.00 0.00 0.00 76 1014.6
20260508110009 43 171 0.0 5.0 0.00 0.00 0.00 77 1014.5
20260508104508 43 194 0.0 2.0 0.00 0.00 0.00 77 1014.4
20260508103012 43 188 0.0 2.0 0.00 0.00 0.00 76 1014.2
20260508101523 43 216 0.0 2.0 0.00 0.00 0.00 75 1014.2
20260508100011 43 203 1.0 3.0 0.00 0.00 0.00 75 1014.2
20260508094512 44 183 1.0 3.0 0.00 0.00 0.00 74 1014.2
20260508093034 44 186 1.0 4.0 0.00 0.00 0.00 74 1014.2
20260508091510 43 169 1.0 4.0 0.00 0.00 0.00 76 1014.3
20260508090024 43 169 0.0 2.0 0.00 0.00 0.00 76 1014.4
20260508084512 44 189 0.0 2.0 0.00 0.00 0.00 76 1014.4
20260508083020 44 173 0.0 2.0 0.00 0.00 0.00 76 1014.2
20260508081513 44 170 0.0 0.0 0.00 0.00 0.00 76 1014.3
20260508080015 45 178 0.0 0.0 0.00 0.00 0.00 76 1014.3
20260508074516 45 200 0.0 0.0 0.00 0.00 0.00 77 1014.3
20260508073012 46 277 0.0 0.0 0.00 0.00 0.00 78 1014.4
20260508071513 46 340 0.0 0.0 0.00 0.00 0.00 78 1014.7
20260508070009 46 340 0.0 0.0 0.00 0.00 0.00 77 1014.9
20260508064514 46 340 0.0 0.0 0.00 0.00 0.00 75 1015.0
20260508063013 47 340 0.0 0.0 0.00 0.00 0.00 73 1015.3
20260508061515 47 262 0.0 1.0 0.00 0.00 0.00 71 1015.4
20260508060017 47 211 0.0 2.0 0.00 0.00 0.00 69 1014.7
20260508054513 46 167 1.0 3.0 0.00 0.00 0.00 69 1014.5
20260508053010 46 192 0.0 1.0 0.00 0.00 0.00 70 1014.6
20260508051517 46 171 0.0 0.0 0.00 0.00 0.00 72 1014.6
20260508050018 46 174 0.0 0.0 0.00 0.00 0.00 73 1014.8
20260508044518 45 173 0.0 0.0 0.00 0.00 0.00 75 1014.8
20260508043016 45 188 0.0 2.0 0.00 0.00 0.00 75 1014.9
20260508041513 44 257 0.0 0.0 0.00 0.00 0.00 78 1014.9
20260508040018 44 257 0.0 0.0 0.00 0.00 0.00 79 1014.8
20260508034515 44 257 0.0 0.0 0.00 0.00 0.00 79 1014.7
20260508033025 44 257 0.0 0.0 0.00 0.00 0.00 78 1014.8
20260508031516 44 257 0.0 0.0 0.00 0.00 0.00 75 1014.5
20260508030017 44 257 0.0 0.0 0.00 0.00 0.00 76 1014.6
20260508024520 44 257 0.0 0.0 0.00 0.00 0.00 75 1014.7
20260508023033 45 257 0.0 0.0 0.00 0.00 0.00 73 1014.6
20260508021513 45 257 0.0 0.0 0.00 0.00 0.00 70 1014.6
20260508020021 46 257 0.0 0.0 0.00 0.00 0.00 66 1014.7
20260508014520 47 257 0.0 0.0 0.00 0.00 0.00 66 1014.6
20260508013020 48 257 0.0 0.0 0.00 0.00 0.00 62 1014.6
20260508011521 49 257 0.0 0.0 0.00 0.00 0.00 58 1014.5
20260508010035 50 257 0.0 0.0 0.00 0.00 0.00 57 1014.4
20260508004522 51 257 0.0 0.0 0.00 0.00 0.00 51 1014.4
20260508003019 52 257 0.0 0.0 0.00 0.00 0.00 47 1014.2
20260508001529 53 257 0.0 2.0 0.00 0.00 0.00 45 1014.2
20260508000022 54 262 0.0 0.0 0.00 0.00 0.00 46 1014.1
20260507234524 55 23 0.0 3.0 0.00 0.00 0.00 44 1014.0
20260507233019 55 360 0.0 2.0 0.00 0.00 0.00 43 1014.0
20260507231518 56 352 1.0 3.0 0.00 0.00 0.00 42 1013.9
20260507230016 56 17 1.0 4.0 0.00 0.00 0.00 42 1013.9
20260507224512 56 352 2.0 4.0 0.00 0.00 0.00 43 1014.1
20260507223021 56 5 0.0 3.0 0.00 0.00 0.00 42 1014.2
20260507221527 57 19 2.0 8.0 0.00 0.00 0.00 39 1014.2
20260507220024 58 338 1.0 7.0 0.00 0.00 0.00 40 1014.2
20260507214527 58 323 1.0 3.0 0.00 0.00 0.00 39 1013.9
20260507213029 58 263 1.0 4.0 0.00 0.00 0.00 38 1014.0
20260507211516 59 334 2.0 9.0 0.00 0.00 0.00 37 1013.8
20260507210042 59 17 3.0 8.0 0.00 0.00 0.00 42 1013.8